Visibility
15.0 15.0 15.0 15.0 15.0 15.0 15.0 15.0 15.0 15.0 15.0 15.0 15.0 15.0 15.0 15.0 15.0 15.0 15.0 15.0 15.0 15.0 15.0 15.0 15.0 15.0 15.0 15.0 15.0 15.0 15.0 15.0 15.0 15.0 15.0 15.0 15.0 15.0 15.0 15.0 15.0 15.0 15.0 15.0
15.0 15.0 15.0 15.0 15.0 15.0 15.0 15.0 15.0 15.0 15.0 15.0 15.0 15.0 15.0 15.0 15.0 15.0 15.0 15.0 15.0 15.0 15.0 15.0 15.0 15.0 15.0 15.0 15.0 15.0 15.0 15.0 15.0 15.0 15.0 15.0 15.0 15.0 15.0 15.0 15.0 15.0 15.0 15.0
15.0 15.0 15.0 15.0 15.0 15.0 15.0 15.0 15.0 15.0 15.0 15.0 15.0 15.0 15.0 15.0 15.0 15.0 15.0 15.0 15.0 15.0 15.0 15.0 15.0 15.0 15.0 15.0 15.0 15.0 15.0 15.0 15.0 15.0 15.0 15.0 15.0 15.0 15.0 15.0 15.0 15.0 15.0 15.0
15.0 15.0 15.0 15.0 15.0 15.0 15.0 15.0 15.0 15.0 15.0 15.0 15.0 15.0 15.0 15.0 15.0 15.0 15.0 15.0 15.0 15.0 15.0 15.0 15.0 15.0 15.0 15.0 15.0 15.0 15.0 15.0 15.0 15.0 15.0 15.0 15.0 15.0 15.0 15.0 15.0 15.0 15.0 15.0
15.0 15.0 15.0 15.0 15.0 15.0 15.0 15.0 15.0 15.0 15.0 15.0 15.0 15.0 15.0 15.0 15.0 15.0 15.0 15.0 15.0 15.0 15.0 15.0 15.0 15.0 15.0 15.0 15.0 15.0 15.0 15.0 15.0 15.0 15.0 15.0 15.0 15.0 15.0 15.0 15.0 15.0 15.0 15.0
15.0 15.0 15.0 15.0 15.0 15.0 15.0 15.0 15.0 15.0 15.0 15.0 15.0 15.0 15.0 0.4 15.0 15.0 15.0 15.0 15.0 15.0 15.0 15.0 15.0 15.0 15.0 15.0 15.0 15.0 15.0 15.0 15.0 15.0 15.0 15.0 15.0 15.0 15.0 15.0 15.0 15.0 15.0 15.0
15.0 15.0 15.0 15.0 15.0 15.0 15.0 15.0 15.0 15.0 15.0 15.0 15.0 15.0 6.0 15.0 15.0 10.8 15.0 15.0 15.0 15.0 15.0 15.0 15.0 15.0 15.0 15.0 15.0 15.0 15.0 15.0 15.0 15.0 15.0 15.0 15.0 15.0 15.0 15.0 15.0 15.0 15.0 15.0
15.0 15.0 15.0 15.0 15.0 15.0 15.0 15.0 15.0 15.0 15.0 15.0 15.0 15.0 15.0 15.0 15.0 15.0 15.0 15.0 15.0 15.0 15.0 15.0 15.0 15.0 15.0 15.0 15.0 15.0 15.0 15.0 15.0 15.0 15.0 15.0 15.0 15.0 15.0 15.0 15.0 15.0 15.0 15.0
15.0 15.0 15.0 15.0 15.0 15.0 15.0 15.0 15.0 15.0 15.0 15.0 15.0 0.9 15.0 15.0 15.0 15.0 15.0 15.0 15.0 13.7 15.0 15.0 15.0 15.0 15.0 15.0 15.0 14.6 15.0 15.0 15.0 15.0 15.0 15.0 15.0 15.0 15.0 15.0 15.0 15.0 15.0 15.0
15.0 5.7 15.0 15.0 15.0 15.0 15.0 15.0 15.0 15.0 15.0 15.0 15.0 15.0 15.0 15.0 14.3 15.0 9.5 6.5 14.5 15.0 14.6 15.0 15.0 12.3 15.0 15.0 15.0 14.1 15.0 15.0 14.3 15.0 15.0 12.7 14.9 15.0 15.0 15.0 15.0 15.0 15.0 15.0
13.2 9.8 13.0 15.0 15.0 15.0 15.0 15.0 15.0 15.0 15.0 15.0 15.0 10.9 15.0 3.3 2.7 1.0 0.8 0.8 0.7 1.9 3.2 15.0 15.0 15.0 13.5 15.0 15.0 15.0 15.0 14.3 12.1 15.0 14.2 11.0 14.9 15.0 15.0 15.0 15.0 15.0 15.0 15.0
14.9 0.3 0.3 15.0 15.0 15.0 15.0 15.0 13.2 0.9 0.8 15.0 15.0 4.2 1.6 7.4 14.9 5.0 0.5 0.8 2.8 13.1 15.0 15.0 15.0 15.0 14.9 3.3 6.7 1.7 3.8 5.3 3.5 15.0 14.0 6.8 8.2 11.7 15.0 15.0 15.0 15.0 15.0 15.0
15.0 10.6 13.4 15.0 15.0 15.0 1.0 0.2 0.1 0.2 0.1 0.1 0.1 0.2 10.2 7.8 1.6 1.8 0.8 1.1 0.4 0.3 2.1 12.6 15.0 15.0 9.7 0.8 0.2 0.3 0.4 0.4 0.7 1.6 2.2 9.1 1.6 0.1 0.0 0.0 0.1 10.9 13.5 14.6
15.0 9.3 8.2 13.3 15.0 7.6 15.0 10.3 9.9 0.3 0.1 0.2 0.1 0.1 0.1 0.1 0.2 0.2 0.2 0.2 0.1 0.1 0.1 0.1 0.1 0.5 2.1 0.4 0.1 0.1 0.1 0.1 0.1 0.2 0.5 0.3 0.1 0.1 0.1 0.1 0.0 0.0 0.0 7.9
11.4 11.7 12.0 15.0 15.0 15.0 9.6 4.9 15.0 7.1 0.5 0.1 0.1 0.1 0.1 0.1 0.1 0.1 0.1 0.1 0.1 0.1 0.1 0.1 0.1 0.1 0.1 0.3 0.5 0.3 0.2 0.1 0.1 0.3 0.2 0.1 0.2 0.2 0.1 0.2 0.1 0.1 0.1 0.0
15.0 15.0 15.0 15.0 15.0 15.0 4.7 15.0 15.0 15.0 1.4 0.1 0.1 0.1 0.1 0.1 0.1 0.2 0.2 0.3 0.4 0.4 0.3 0.3 0.2 0.2 7.2 1.2 1.2 1.5 1.5 4.3 0.5 0.1 0.1 0.1 0.1 0.2 0.3 0.3 0.1 0.1 0.1 0.1
15.0 15.0 15.0 15.0 15.0 15.0 1.0 0.7 4.3 2.1 2.3 0.6 0.3 0.1 0.1 0.1 0.1 0.1 0.1 0.1 0.3 1.6 7.0 15.0 10.0 2.1 5.9 15.0 11.4 11.2 11.2 15.0 11.3 3.8 14.0 4.7 0.5 0.1 0.1 0.3 0.5 0.3 0.1 0.1
15.0 9.2 1.5 0.2 7.7 0.1 0.2 7.0 8.0 4.6 0.5 0.3 0.2 0.2 1.5 8.5 12.9 14.4 1.4 15.0 15.0 15.0 15.0 15.0 15.0 15.0 15.0 15.0 15.0 15.0 15.0 15.0 15.0 15.0 13.6 15.0 15.0 15.0 12.6 6.5 0.4 0.5 1.2 0.3
15.0 2.0 12.9 8.7 3.1 0.8 0.9 2.5 3.3 0.5 2.3 0.2 0.2 1.2 15.0 15.0 15.0 0.6 12.8 15.0 15.0 15.0 15.0 15.0 15.0 15.0 15.0 15.0 15.0 15.0 15.0 15.0 15.0 15.0 15.0 15.0 15.0 15.0 15.0 15.0 15.0 15.0 13.6 4.3
15.0 15.0 15.0 1.7 0.3 0.5 5.4 1.5 0.3 0.3 2.1 2.7 1.0 2.6 1.5 8.1 14.8 15.0 15.0 15.0 15.0 15.0 15.0 15.0 15.0 15.0 15.0 15.0 15.0 15.0 15.0 15.0 15.0 15.0 15.0 15.0 15.0 15.0 15.0 15.0 15.0 15.0 15.0 15.0
15.0 15.0 10.5 2.7 3.9 1.7 13.5 11.7 0.4 0.2 1.4 3.5 1.7 1.8 0.9 0.7 7.5 15.0 15.0 15.0 15.0 15.0 15.0 15.0 15.0 15.0 15.0 15.0 15.0 15.0 15.0 15.0 15.0 15.0 15.0 15.0 15.0 15.0 15.0 15.0 15.0 15.0 15.0 15.0
9.0 2.7 3.8 10.5 2.9 1.8 7.8 8.4 3.2 11.5 14.6 4.1 5.9 6.7 0.4 2.9 15.0 15.0 15.0 15.0 15.0 15.0 15.0 15.0 15.0 15.0 15.0 15.0 15.0 15.0 15.0 15.0 15.0 15.0 15.0 15.0 15.0 15.0 15.0 15.0 15.0 15.0 15.0 15.0
1.6 0.9 0.5 0.6 0.3 0.4 13.9 15.0 15.0 15.0 15.0 15.0 2.1 6.5 3.9 15.0 15.0 15.0 15.0 15.0 15.0 15.0 15.0 15.0 15.0 15.0 15.0 15.0 15.0 15.0 15.0 15.0 15.0 15.0 15.0 15.0 15.0 15.0 15.0 15.0 15.0 15.0 15.0 15.0
0.7 12.4 2.6 15.0 5.9 15.0 15.0 15.0 15.0 10.0 15.0 15.0 15.0 15.0 15.0 7.5 13.3 4.4 15.0 15.0 15.0 15.0 15.0 15.0 15.0 15.0 15.0 15.0 15.0 15.0 15.0 15.0 15.0 15.0 15.0 15.0 15.0 15.0 15.0 15.0 15.0 15.0 15.0 15.0
7.6 15.0 7.7 15.0 15.0 15.0 4.2 5.1 2.4 14.2 15.0 14.7 15.0 15.0 7.5 2.0 11.8 15.0 15.0 15.0 15.0 15.0 15.0 15.0 15.0 15.0 15.0 15.0 15.0 15.0 15.0 15.0 15.0 15.0 15.0 15.0 15.0 15.0 15.0 15.0 15.0 15.0 15.0 15.0
10.5 5.2 15.0 15.0 15.0 15.0 15.0 15.0 15.0 7.6 15.0 15.0 15.0 4.2 15.0 15.0 15.0 15.0 15.0 15.0 15.0 15.0 15.0 15.0 15.0 15.0 15.0 15.0 15.0 15.0 15.0 15.0 15.0 15.0 15.0 15.0 15.0 15.0 15.0 15.0 15.0 15.0 14.6 8.8